STARLINK-11326, 62010

Orbit data source: Space-Track

STARLINK-11326, 62010 is a payload satellite owned by SpaceX/Seattle (US) in LEO that was launched on Mon, 18 Nov 2024 UTC via an FALCON 9 launch vehicle from the Air Force Western Test Range (AFWTR). Payload-class satellites include a variety of spacecraft equipped with specific instruments for various scientific and technological missions. These include communications satellites like Starlink; space stations such as the ISS; scientific satellites like the Hubble; Earth observation satellites from companies like Planet Labs, Umbra, and HawkEye 360; GPS; miniature CubeSats for education and research; and military/defense satellites.

Loading next visibility...
Identifier
62010, 2024-213C
Orbit
LEO
Country
Flag of USUS
Related business
Manufacturer
SpaceX/Seattle
Mission
Operational Commercial Communications
Bus & Motor
STARLINK V2MD, Unknown motor
Mass
960 kg wet, ~910 kg dry
Launch date (UTC)
2024-11-18 (1 year ago)
Launch vehicle
FALCON 9
Launch site
Air Force Western Test Range (AFWTR)
Object type
Payload
Rocket body
Debris
Shape & HBR
Box + 2 Pan, 18.1 m
Radar Cross Section
36.964 m², Large (>1 m²)

Expand to show TLE details & history
Last TLE update: 8 hours ago

TLE from 8 hours ago
0 STARLINK-11326
1 62010U 24213C   25308.25615057  .00231883  00000-0  18621-2 0  9995
2 62010  53.1567 299.6587 0001206  89.2436 270.8720 15.69758620 55213
Epoch: 2025-11-04T06:08Z
TLE epoch observation values (Epoch: 2025-11-04T06:08:51.409Z)
Latitude
-0.00002°
Longitude
163.6987°
Altitude
360.49 km
Speed
7.694 km/s
True Right ascension
19h 58m 38s
True Declination
0° 00' 00"
Sunlit
Object was in daylight at epoch
Visualization orbit readout
Latitude
Unknown
Longitude
Unknown
Altitude
Unknown
Speed
Unknown
Apparent Right ascension
Unknown
Apparent Declination
Unknown
Sunlit
N/A
Visualization observer readout
Local Sidereal Time
09:57:43
Azimuth
Unknown
Elevation
Unknown
Doppler factor
Unknown
Orbital elements
Apogee altitude
360.661 km
Perigee altitude
359.036 km
Semi-major axis
6,737.986 km
Eccentricity
0.00012
Inclination
53.1567°
RAAN
299.6587°
Arg. of periapsis
89.2436°
True anomaly
270.85818°
Mean anomaly
270.872°
Eccentric anomaly
270.86509°
Mean motion
3.92417 °/min
Orbital period
91.74 mins
BSTAR
0.0018621
Loading maneuver chart data...
Computing Atmospheric mass density...
Loading historical data...
Loading historical data...
Loading historical data...
Loading historical data...
Loading historical data...
Loading historical data...
Loading historical data...

Documentation

Showing up to 5 results
|